Moscow Sheremetyevo, Russia

8:57 AM MSK on June 22, 2018 (GMT +0300)
Sheremetyevo

Weather History for UUEE - September, 2017

Change the Weather History Date:

Wednesday, September 13, 2017

  Actual Average Record
Temperature  
Mean Temperature 63 °F -  
Max Temperature 71 °F 59 °F 75 °F (1998)
Min Temperature 55 °F 44 °F 39 °F (2002)
Degree Days  
Heating Degree Days 2    
Growing Degree Days 13 (Base 50)    
Moisture  
Dew Point 58 °F    
Average Humidity 80    
Maximum Humidity 100    
Minimum Humidity 64    
Precipitation  
Precipitation 0.00 in - - ()
Sea Level Pressure  
Sea Level Pressure 29.62 in    
Wind  
Wind Speed 8 mph ()    
Max Wind Speed 20 mph    
Max Gust Speed 22 mph    
Visibility 6.2 miles    
Events Rain    
Averages and records for this station are not official NWS values.
T = Trace of Precipitation, MM = Missing Value Source: Averaged Metar Reports

Daily Weather History Graph

Daily Weather History Graph

Search for Another Location

Airport or City:

Astronomy

Sep. 13, 2017 Rise Set
Actual Time 5:57 AM MSK 6:52 PM MSK
Civil Twilight 5:19 AM MSK 7:30 PM MSK
Nautical Twilight 4:33 AM MSK 8:16 PM MSK
Astronomical Twilight 3:43 AM MSK 9:06 PM MSK
Moon 10:49 PM MSK (9/13) 2:31 PM MSK (9/13)
Length of Visible Light 14h 10m
Length of Day
12h 55m
Waning Gibbous, 49% of the Moon is Illuminated
Sep 13
Waning Gibbous
Sep 20
New
Sep 28
First Quarter
Oct 5
Full
Oct 12
Last Quarter

Hourly Weather History & Observations

Time (MSK) Temp. Dew Point Humidity Pressure Visibility Wind Dir Wind Speed Gust Speed Precip Events Conditions
12:00 AM 62.6 °F 55.4 °F 77% 29.83 in - SSE 4.5 mph - N/A   Clear
12:30 AM 64.4 °F 55.4 °F 73% 29.83 in - SE 6.7 mph - N/A   Clear
1:00 AM 57.2 °F 55.4 °F 94% 29.83 in - ESE 4.5 mph - N/A   Clear
1:30 AM 59.0 °F 55.4 °F 88% 29.83 in - SE 4.5 mph - N/A   Clear
2:00 AM 57.2 °F 53.6 °F 88% 29.80 in - East 4.5 mph - N/A   Clear
2:30 AM 57.2 °F 53.6 °F 88% 29.80 in - East 6.7 mph - N/A   Clear
3:00 AM 55.4 °F 53.6 °F 94% 29.80 in - East 6.7 mph - N/A   Clear
3:30 AM 55.4 °F 53.6 °F 94% 29.80 in - East 6.7 mph - N/A   Clear
4:00 AM 59.0 °F 55.4 °F 88% 29.80 in - East 6.7 mph - N/A   Clear
4:30 AM 55.4 °F 55.4 °F 100% 29.77 in - East 6.7 mph - N/A   Clear
5:00 AM 55.4 °F 55.4 °F 100% 29.77 in - East 6.7 mph - N/A   Clear
5:30 AM 55.4 °F 53.6 °F 94% 29.77 in - East 6.7 mph - N/A   Clear
6:00 AM 55.4 °F 53.6 °F 94% 29.74 in - East 4.5 mph - N/A   Clear
6:30 AM 55.4 °F 55.4 °F 100% 29.74 in - East 6.7 mph - N/A   Clear
7:00 AM 57.2 °F 55.4 °F 94% 29.71 in - East 8.9 mph - N/A   Clear
7:30 AM 59.0 °F 57.2 °F 94% 29.71 in - ENE 8.9 mph - N/A   Clear
8:00 AM 60.8 °F 57.2 °F 88% 29.68 in - East 8.9 mph - N/A   Clear
8:30 AM 62.6 °F 57.2 °F 82% 29.68 in - East 8.9 mph - N/A   Clear
9:00 AM 64.4 °F 57.2 °F 77% 29.65 in - ESE 8.9 mph - N/A   Clear
9:30 AM 66.2 °F 57.2 °F 73% 29.65 in - ESE 8.9 mph - N/A   Clear
10:00 AM 66.2 °F 57.2 °F 73% 29.62 in - SE 8.9 mph - N/A   Clear
10:30 AM 68.0 °F 57.2 °F 68% 29.62 in - SE 11.2 mph - N/A   Clear
11:00 AM 69.8 °F 57.2 °F 64% 29.62 in - SSE 8.9 mph - N/A   Clear
11:30 AM 69.8 °F 57.2 °F 64% 29.62 in - SE 11.2 mph - N/A   Clear
12:00 PM 69.8 °F 59.0 °F 68% 29.59 in - ESE 8.9 mph - N/A   Clear
12:30 PM 69.8 °F 59.0 °F 68% 29.59 in - SE 8.9 mph 20.1 mph N/A   Clear
1:00 PM 71.6 °F 60.8 °F 69% 29.56 in - SE 11.2 mph - N/A   Clear
1:30 PM 71.6 °F 60.8 °F 69% 29.56 in - SE 8.9 mph - N/A   Clear
2:00 PM 71.6 °F 59.0 °F 64% 29.56 in 6.2 mi ESE 11.2 mph - N/A Rain Light Rain Showers
2:30 PM 71.6 °F 59.0 °F 64% 29.53 in 6.2 mi SE 15.7 mph - N/A   Scattered Clouds
3:00 PM 69.8 °F 59.0 °F 68% 29.53 in - SE 13.4 mph - N/A   Clear
3:30 PM 71.6 °F 60.8 °F 69% 29.53 in 6.2 mi SSE 11.2 mph - N/A   Scattered Clouds
4:00 PM 71.6 °F 60.8 °F 69% 29.50 in 6.2 mi SSE 8.9 mph - N/A   Scattered Clouds
4:30 PM 71.6 °F 60.8 °F 69% 29.50 in 6.2 mi South 11.2 mph - N/A   Mostly Cloudy
5:00 PM 71.6 °F 60.8 °F 69% 29.50 in 6.2 mi South 8.9 mph - N/A   Mostly Cloudy
5:30 PM 69.8 °F 60.8 °F 73% 29.50 in 6.2 mi South 8.9 mph - N/A   Mostly Cloudy
6:00 PM 69.8 °F 60.8 °F 73% 29.47 in 6.2 mi SSE 8.9 mph - N/A   Scattered Clouds
6:30 PM 69.8 °F 62.6 °F 78% 29.47 in 6.2 mi SSE 6.7 mph - N/A   Scattered Clouds
7:00 PM 69.8 °F 62.6 °F 78% 29.47 in 6.2 mi South 6.7 mph - N/A   Mostly Cloudy
7:30 PM 69.8 °F 62.6 °F 78% 29.47 in 6.2 mi South 6.7 mph - N/A   Mostly Cloudy
8:00 PM 69.8 °F 62.6 °F 78% 29.47 in 6.2 mi SSW 13.4 mph - N/A   Mostly Cloudy
8:30 PM 69.8 °F 62.6 °F 78% 29.47 in - South 11.2 mph 22.4 mph N/A   Clear
9:00 PM 68.0 °F 62.6 °F 83% 29.47 in 6.2 mi SSW 13.4 mph - N/A   Mostly Cloudy
9:30 PM 68.0 °F 62.6 °F 83% 29.47 in 6.2 mi SSW 13.4 mph - N/A   Mostly Cloudy
10:00 PM 68.0 °F 60.8 °F 78% 29.50 in 6.2 mi SW 20.1 mph - N/A   Mostly Cloudy
10:30 PM 66.2 °F 59.0 °F 78% 29.50 in 6.2 mi WSW 20.1 mph - N/A   Mostly Cloudy
11:00 PM 64.4 °F 59.0 °F 83% 29.50 in 6.2 mi SW 17.9 mph - N/A   Mostly Cloudy
11:30 PM 62.6 °F 59.0 °F 88% 29.53 in - WSW 15.7 mph - N/A   Clear